User: anonymous
Location: Unspecified
(0.0000°N, 0.0000°E)
Time: 08:39:05
(UTC+02:00)
Language:

NATO 3D Rocket - Orbit

View from above orbital plane
View from above orbital plane
View from above satellite
View from above satellite

Ground track
Ground track

The orbit data is extracted from the following two-line orbital elements,

1 15392U 84115B   14207.15121554  .00000174  00000-0  27206-4 0  1802
2 15392 021.4906 100.9725 1034855 025.8136 127.9003 12.45417452352129
Epoch (UTC): 26 July 2014 03:37:45
Eccentricity: 0.1034855
inclination: 21.4906°
perigee height: 670 km
apogee height: 2297 km
right ascension of ascending node: 100.9725°
argument of perigee: 25.8136°
revolutions per day: 12.45417452
mean anomaly at epoch: 127.9003°
orbit number at epoch: 35212

The dashed part of the orbit path shows where the satellite is in the earth's shadow,  

DLR